Date String (YYYY-MM-DD hh:mm:ss) UTC,Instrument flags,Ambient pressure (hPa),Sample flow (lpm),Bypass flow (lpm),Sample temperature (°C),Ambient temperature (°C),ASC tube jacket temperature (°C),LED temperature (°C),Box temperature (°C),Sample RH (%),Span deviation,Mass concentration (μg/m³),Mass concentration (μg/m³),Mass concentration (μg/m³)
DateTimeUTC,F1_M11,P_M11,Q1_M11,Q2_M11,T1_M11,T2_M11,T3_M11,T4_M11,T5_M11,U1_M11,ZSPAN_M11,X0_M11,X2_M11,X1_M11
2022-01-08 21:00:00,,0819.4,5.01,0.00,24.2,23.6,00.0,33.1,26.1,14.7,0000.0,0008.79,0005.28,0005.04
2022-01-08 21:01:00,,0819.4,5.00,0.00,24.2,23.6,00.0,33.1,26.1,14.8,0000.0,0008.78,0005.28,0005.03
2022-01-08 21:02:00,,0819.4,5.01,0.00,24.2,23.6,00.0,33.1,26.1,14.8,0000.0,0009.27,0005.26,0005.02
2022-01-08 21:03:00,,0819.3,4.99,0.00,24.2,23.6,00.0,33.1,26.1,14.8,0000.0,0009.68,0005.28,0005.02
2022-01-08 21:04:00,,0819.4,5.01,0.00,24.3,23.6,00.0,33.1,26.1,14.9,0000.0,0010.24,0005.29,0005.00
2022-01-08 21:05:00,,0819.4,5.00,0.00,24.3,23.7,00.0,33.1,26.1,14.6,0000.0,0010.31,0005.30,0004.99
2022-01-08 21:06:00,,0819.4,5.01,0.00,24.3,23.7,00.0,33.2,26.2,14.7,0000.0,0010.10,0005.33,0005.00
2022-01-08 21:07:00,,0819.4,5.00,0.00,24.3,23.7,00.0,33.2,26.2,14.5,0000.0,0010.28,0005.35,0005.01
2022-01-08 21:08:00,,0819.4,5.00,0.00,24.3,23.7,00.0,33.2,26.2,14.5,0000.0,0010.17,0005.36,0005.00
2022-01-08 21:09:00,,0819.4,5.01,0.00,24.3,23.7,00.0,33.2,26.2,14.7,0000.0,0010.10,0005.35,0004.99
2022-01-08 21:10:00,,0819.4,5.00,0.00,24.3,23.7,00.0,33.2,26.2,14.7,0000.0,0010.13,0005.36,0004.99
2022-01-08 21:11:00,,0819.4,4.99,0.00,24.4,23.8,00.0,33.2,26.3,14.7,0000.0,0010.21,0005.37,0004.99
2022-01-08 21:12:00,,0819.4,5.01,0.00,24.4,23.8,00.0,33.2,26.3,14.6,0000.0,0010.22,0005.34,0004.98
2022-01-08 21:13:00,,0819.4,4.99,0.00,24.4,23.8,00.0,33.2,26.3,14.4,0000.0,0009.68,0005.33,0004.96
2022-01-08 21:14:00,,0819.4,4.99,0.00,24.4,23.8,00.0,33.3,26.3,14.5,0000.0,0009.20,0005.27,0004.93
2022-01-08 21:15:00,,0819.5,4.99,0.00,24.5,23.9,00.0,33.3,26.3,14.4,0000.0,0008.66,0005.24,0004.92
2022-01-08 21:16:00,,0819.5,5.00,0.00,24.5,23.9,00.0,33.3,26.4,14.4,0000.0,0008.48,0005.18,0004.91
2022-01-08 21:17:00,,0819.6,5.00,0.00,24.5,23.9,00.0,33.3,26.4,14.2,0000.0,0008.35,0005.14,0004.89
2022-01-08 21:18:00,,0819.5,5.00,0.00,24.5,24.0,00.0,33.3,26.4,14.3,0000.0,0008.22,0005.14,0004.88
2022-01-08 21:19:00,,0819.6,4.99,0.00,24.6,24.0,00.0,33.4,26.5,14.1,0000.0,0008.14,0005.13,0004.88
2022-01-08 21:20:00,,0819.6,5.00,0.00,24.6,24.0,00.0,33.4,26.5,14.0,0000.0,0008.21,0005.15,0004.88
2022-01-08 21:21:00,,0819.7,5.01,0.00,24.6,24.0,00.0,33.4,26.5,14.1,0000.0,0008.22,0005.13,0004.86
2022-01-08 21:22:00,,0819.7,4.99,0.00,24.6,24.1,00.0,33.4,26.6,14.1,0000.0,0008.95,0005.16,0004.87
2022-01-08 21:23:00,,0819.7,5.01,0.00,24.7,24.1,00.0,33.4,26.6,14.1,0000.0,0008.98,0005.18,0004.87
2022-01-08 21:24:00,,0819.8,5.00,0.00,24.7,24.1,00.0,33.5,26.6,14.2,0000.0,0009.26,0005.22,0004.88
2022-01-08 21:25:00,,0819.8,4.99,0.00,24.7,24.1,00.0,33.5,26.6,14.2,0000.0,0009.57,0005.28,0004.91
2022-01-08 21:26:00,,0819.8,5.01,0.00,24.7,24.1,00.0,33.5,26.6,14.1,0000.0,0010.29,0005.34,0004.92
2022-01-08 21:27:00,,0819.9,4.99,0.00,24.7,24.1,00.0,33.5,26.6,14.0,0000.0,0010.79,0005.41,0004.94
2022-01-08 21:28:00,,0819.9,5.00,0.00,24.7,24.1,00.0,33.5,26.5,13.9,0000.0,0010.88,0005.46,0004.96
2022-01-08 21:29:00,,0819.9,5.01,0.00,24.7,24.1,00.0,33.6,26.5,14.0,0000.0,0011.26,0005.46,0004.98
2022-01-08 21:30:00,,0819.9,5.00,0.00,24.7,24.1,00.0,33.6,26.5,14.2,0000.0,0011.29,0005.50,0004.99
2022-01-08 21:31:00,,0820.0,4.99,0.00,24.7,24.1,00.0,33.6,26.6,14.3,0000.0,0011.32,0005.53,0005.01
2022-01-08 21:32:00,,0819.9,5.02,0.00,24.7,24.1,00.0,33.6,26.6,14.3,0000.0,0011.26,0005.52,0005.03
2022-01-08 21:33:00,,0819.9,5.00,0.00,24.7,24.1,00.0,33.6,26.6,14.3,0000.0,0010.89,0005.54,0005.04
2022-01-08 21:34:00,,0819.9,4.99,0.00,24.7,24.1,00.0,33.6,26.6,14.4,0000.0,0010.84,0005.55,0005.06
2022-01-08 21:35:00,,0819.9,4.99,0.00,24.7,24.1,00.0,33.6,26.5,14.5,0000.0,0010.77,0005.58,0005.10
2022-01-08 21:36:00,,0819.9,5.02,0.00,24.7,24.1,00.0,33.6,26.5,14.6,0000.0,0010.49,0005.58,0005.12
2022-01-08 21:37:00,,0820.0,5.00,0.00,24.7,24.1,00.0,33.6,26.6,14.4,0000.0,0010.04,0005.57,0005.15
2022-01-08 21:38:00,,0820.0,4.99,0.00,24.7,24.1,00.0,33.6,26.5,14.4,0000.0,0009.40,0005.58,0005.19
2022-01-08 21:39:00,,0820.2,5.01,0.00,24.7,24.1,00.0,33.6,26.5,14.5,0000.0,0009.54,0005.58,0005.21
2022-01-08 21:40:00,,0820.2,5.00,0.00,24.7,24.1,00.0,33.6,26.5,14.5,0000.0,0009.25,0005.61,0005.25
2022-01-08 21:41:00,,0820.2,5.00,0.00,24.7,24.1,00.0,33.7,26.6,14.5,0000.3,0009.35,0005.65,0005.27
2022-01-08 21:42:00,,0820.2,5.00,0.00,24.7,24.1,00.0,33.7,26.6,14.5,0000.3,0009.47,0005.68,0005.30
2022-01-08 21:43:00,,0820.2,4.99,0.00,24.7,24.1,00.0,33.7,26.6,14.5,0000.0,0010.17,0005.73,0005.33
2022-01-08 21:44:00,,0820.2,5.00,0.00,24.7,24.1,00.0,33.7,26.6,14.6,0000.0,0009.97,0005.76,0005.36
2022-01-08 21:45:00,,0820.2,5.01,0.00,24.7,24.1,00.0,33.7,26.6,14.7,0000.0,0010.06,0005.78,0005.38
2022-01-08 21:46:00,,0820.2,4.99,0.00,24.7,24.1,00.0,33.7,26.6,14.6,0000.0,0010.63,0005.79,0005.39
2022-01-08 21:47:00,,0820.2,5.01,0.00,24.8,24.1,00.0,33.7,26.6,14.6,0000.0,0010.82,0005.82,0005.42
2022-01-08 21:48:00,,0820.2,5.00,0.00,24.8,24.1,00.0,33.7,26.6,14.6,0000.0,0010.95,0005.85,0005.42
2022-01-08 21:49:00,,0820.2,4.99,0.00,24.8,24.1,00.0,33.7,26.6,14.5,0000.0,0010.98,0005.85,0005.43
2022-01-08 21:50:00,,0820.2,5.00,0.00,24.8,24.1,00.0,33.7,26.6,14.5,0000.0,0011.29,0005.89,0005.46
2022-01-08 21:51:00,,0820.2,4.99,0.00,24.8,24.1,00.0,33.7,26.6,14.5,0000.0,0011.62,0005.91,0005.47
2022-01-08 21:52:00,,0820.2,5.02,0.00,24.8,24.1,00.0,33.7,26.6,14.6,0000.0,0011.53,0005.90,0005.49
2022-01-08 21:53:00,,0820.3,4.98,0.00,24.8,24.1,00.0,33.7,26.6,14.5,0000.0,0011.39,0005.90,0005.50
2022-01-08 21:54:00,,0820.2,4.99,0.00,24.8,24.1,00.0,33.7,26.7,14.5,0000.0,0010.76,0005.90,0005.50
2022-01-08 21:55:00,,0820.2,4.99,0.00,24.8,24.1,00.0,33.7,26.7,14.3,0000.0,0010.72,0005.90,0005.51
2022-01-08 21:56:00,,0820.3,5.00,0.00,24.8,24.1,00.0,33.7,26.6,14.4,0000.0,0010.61,0005.93,0005.52
2022-01-08 21:57:00,,0820.3,5.00,0.00,24.8,24.1,00.0,33.7,26.6,14.5,0000.0,0010.39,0005.96,0005.54
2022-01-08 21:58:00,,0820.4,5.01,0.00,24.8,24.1,00.0,33.7,26.6,14.5,0000.0,0010.80,0006.02,0005.59
2022-01-08 21:59:00,,0820.4,4.99,0.00,24.8,24.1,00.0,33.7,26.6,14.5,0000.0,0010.91,0006.02,0005.62
